Location: Sternwarte_Laufen
(47.9344°N, 12.9346°E)
Time: 07:37:32
(UTC+02:00)

Transit 2A - All Passes

Search period start: 08 June 2026 00:00
Search period end: 18 June 2026 00:00
Orbit: 595 x 948 km, 66.7° (Epoch: 7 June)

Date Brightness Start Highest point End Pass type
(mag) Time Alt. Az. Time Alt. Az. Time Alt. Az.
8 Jun - 09:42:56 10° SSE 09:46:43 18° ESE 09:50:20 10° ENE daylight
8 Jun - 11:23:13 10° SSW 11:29:11 89° NW 11:34:38 10° NE daylight
8 Jun - 13:08:23 10° W 13:12:53 23° NW 13:17:05 10° NNE daylight
8 Jun - 16:42:19 10° N 16:43:27 11° NNE 16:44:34 10° NNE daylight
8 Jun - 18:23:57 10° NNW 18:28:12 29° NE 18:32:09 10° ESE daylight
8 Jun - 20:06:54 10° NW 20:11:23 45° WSW 20:15:34 10° S daylight
9 Jun - 09:08:41 10° ESE 09:10:33 12° ESE 09:12:24 10° E daylight
9 Jun - 10:46:53 10° SSW 10:52:46 66° ESE 10:58:10 10° NE daylight
9 Jun - 12:31:10 10° W 12:36:11 30° NW 12:40:49 10° NNE daylight
9 Jun - 14:19:19 10° NW 14:20:56 11° NNW 14:22:29 10° N daylight
9 Jun - 17:47:40 10° NNW 17:51:29 22° NE 17:55:04 10° E daylight
9 Jun - 19:30:20 10° NW 19:35:03 71° WSW 19:39:24 10° SSE daylight
10 Jun - 10:10:45 10° S 10:16:23 46° ESE 10:21:35 10° NE daylight
10 Jun - 11:54:08 10° WSW 11:59:32 39° NW 12:04:31 10° NNE daylight
10 Jun - 13:41:28 10° NW 13:44:00 13° NNW 13:46:27 10° N daylight
10 Jun - 17:11:28 10° NNW 17:14:42 17° NNE 17:17:48 10° ENE daylight
10 Jun - 18:53:51 10° NNW 18:58:37 76° NE 19:03:00 10° SE daylight
10 Jun - 20:38:29 10° WNW 20:40:51 14° WSW 20:43:08 10° SW daylight
11 Jun - 09:34:53 10° S 09:40:04 32° ESE 09:44:54 10° NE daylight
11 Jun - 11:17:15 10° SW 11:22:57 52° NW 11:28:11 10° NNE daylight
11 Jun - 13:03:47 10° WNW 13:07:08 16° NNW 13:10:18 10° N daylight
11 Jun - 16:35:18 10° N 16:37:52 14° NNE 16:40:21 10° ENE daylight
11 Jun - 18:17:27 10° NNW 18:22:06 51° NE 18:26:25 10° SE daylight
11 Jun - 20:01:10 10° WNW 20:04:41 22° WSW 20:08:03 10° SSW daylight
12 Jun - 08:59:21 10° SSE 09:03:48 22° ESE 09:08:00 10° ENE daylight
12 Jun - 10:40:34 10° SW 10:46:27 72° NW 10:51:48 10° NNE daylight
12 Jun - 12:26:18 10° W 12:30:19 20° NNW 12:34:06 10° NNE daylight
12 Jun - 15:59:15 10° N 16:00:59 12° NNE 16:02:39 10° NE daylight
12 Jun - 17:41:06 10° NNW 17:45:32 36° NE 17:49:38 10° ESE daylight
12 Jun - 19:24:18 10° NW 19:28:28 34° WSW 19:32:23 10° S daylight
13 Jun - 08:24:21 10° SE 08:27:35 15° ESE 08:30:42 10° ENE daylight
13 Jun - 10:04:04 10° SSW 10:09:59 82° ESE 10:15:22 10° NE daylight
13 Jun - 11:48:58 10° W 11:53:34 25° NW 11:57:52 10° NNE daylight
13 Jun - 13:38:22 10° NNW 13:38:28 10° NNW 13:38:36 10° NNW daylight
13 Jun - 17:04:48 10° NNW 17:08:52 26° NE 17:12:40 10° E daylight
13 Jun - 18:47:38 10° NW 18:52:10 52° WSW 18:56:24 10° SSE daylight
14 Jun - 09:27:47 10° SSW 09:33:34 58° ESE 09:38:52 10° NE daylight
14 Jun - 11:11:47 10° WSW 11:16:53 32° NW 11:21:35 10° NNE daylight
14 Jun - 12:59:43 10° NW 13:01:32 12° NNW 13:03:17 10° N daylight
14 Jun - 16:28:33 10° NNW 16:32:07 20° NE 16:35:30 10° E daylight
14 Jun - 18:11:05 10° NW 18:15:47 82° WSW 18:20:09 10° SSE daylight
15 Jun - 08:51:45 10° S 08:57:12 41° ESE 09:02:15 10° NE daylight
15 Jun - 10:34:48 10° WSW 10:40:16 42° NW 10:45:17 10° NNE daylight
15 Jun - 12:21:54 10° NW 12:24:37 14° NNW 12:27:14 10° N daylight
15 Jun - 15:52:22 10° N 15:55:20 16° NNE 15:58:10 10° ENE daylight
15 Jun - 17:34:38 10° NNW 17:39:20 66° NE 17:43:41 10° SE daylight
15 Jun - 19:18:53 10° WNW 19:21:41 16° WSW 19:24:23 10° SW daylight
16 Jun - 08:15:58 10° SSE 08:20:54 28° ESE 08:25:30 10° NE daylight
16 Jun - 09:57:59 10° SW 10:03:42 58° NW 10:08:56 10° NNE daylight
16 Jun - 11:44:16 10° WNW 11:47:46 17° NNW 11:51:04 10° N daylight
16 Jun - 15:16:15 10° N 15:18:28 13° NNE 15:20:36 10° NE daylight
16 Jun - 16:58:15 10° NNW 17:02:48 45° NE 17:07:01 10° ESE daylight
16 Jun - 18:41:46 10° NW 18:45:30 25° WSW 18:49:03 10° SSW daylight
17 Jun - 07:40:35 10° SSE 07:44:39 20° ESE 07:48:29 10° ENE daylight
17 Jun - 09:21:21 10° SW 09:27:12 80° NW 09:32:32 10° NNE daylight
17 Jun - 11:06:49 10° W 11:10:58 21° NW 11:14:52 10° NNE daylight
17 Jun - 14:40:21 10° N 14:41:33 11° NNE 14:42:44 10° NNE daylight
17 Jun - 16:21:56 10° NNW 16:26:12 32° NE 16:30:10 10° ESE daylight
17 Jun - 18:04:58 10° NW 18:09:14 39° WSW 18:13:16 10° S daylight
